Location: Pitton
(51.0667°N, 1.7000°W)
Time: 12:45:34
(UTC+00:00)

NOSS 3-3 (C) - Pass Details

Date: 17 September 2019
Orbit: 849 x 1364 km, 63.4° (Epoch: 08 October)

Event Time Altitude Azimuth Distance (km) Brightness Sun altitude
Rises 18:53:56 0° 208° (SSW) 3,468 7.1 -6.5°
Reaches altitude 10° 18:56:20 10° 205° (SSW) 2,573 6.4 -6.9°
Maximum altitude 19:02:12 62° 126° (SE) 1,084 4.0 -7.8°
Drops below altitude 10° 19:08:50 10° 48° (NE) 2,894 6.2 -8.8°
Sets 19:11:40 0° 45° (NE) 3,933 6.9 -9.3°
